sat.trackr.live / text

‹ back to catalog

STARLINK-5540

NORAD 56340 · 2023-058Z

PAYLOAD ACTIVE UNKNOWN

§ Identity

Operator
Country
US
Launch date
2023-04-27
Launch site
AFWTR
Launch vehicle
Mass (kg)
RCS (m²)

Purposes: comms

External: N2YO · Heavens-Above · Gunter

§ Orbital elements

Epoch: 2026-05-25T04:10:40.767744Z

Period
95.64 min
Inclination
97.4468°
Eccentricity
0.0001632
Mean motion
15.05698730 rev/d
Perigee alt
548.2 km
Apogee alt
550.5 km
Semi-major
6,927.5 km
B*
-7.0758e-4
RAAN
146.2123°
Arg perigee
71.0223°
Mean anomaly
289.1181°
Rev number
16,970

§ Raw data

STARLINK-55401 56340U 23058Z   26145.17408296 -.00010267  00000+0 -70758-3 0  99982 56340  97.4468 146.2123 0001632  71.0223 289.1181 15.05698730169701

JSON: /api/v1/satellites/56340 · /tle

For live sub-satellite position, see the globe view (requires WebGL).

§ Visibility from observer

Set your observer location to see the next 7 days of passes ≥ 10°. The values pass through the URL so the page stays shareable.

No JS? Fill the form by hand. The geolocation button needs JavaScript.